Zurück zum Katalog

ATLAS 2A CENTAUR R/B

AktivHEO
NORAD 26053·ROCKET BODY·🇺🇸 United States

Gestartet Jan 21, 2000 von Cape Canaveral Space Force Station

Loading…

Nächste Überflüge (nächste 24 Stunden)

TLE

AktuellSource: Space-Track

Epoche: Sep 13, 2026, 18:28 UTC

1 26053U 00001B   26256.76958674  .00007357  00000-0  99828-3 0  9991
2 26053  26.0377  60.9044 5727808 242.0281  49.4560  4.47285813329893

Verfolge ATLAS 2A CENTAUR R/B in Echtzeit mit AllMySat

Download on the App Store